User: anonymous   Login
Location: Caltech
(34.1382°N, 118.1253°W)
Time: 14:40:23
(UTC-07:00)
Language:

DELTA 2 R/B (1) - Orbit

View from above orbital plane
View from above orbital plane
View from above satellite
View from above satellite

Ground track
Ground track

The orbit data is extracted from the following two-line orbital elements,

1 27665U 03005C   16211.52689501 -.00000078  00000-0  27934-5 0  9997
2 27665  39.5768 313.1534 0009890 328.5200  99.3171 14.28413784704780
Epoch (UTC): 29 July 2016 12:38:43
Eccentricity: 0.0009890
inclination: 39.5768°
perigee height: 790 km
apogee height: 804 km
right ascension of ascending node: 313.1534°
argument of perigee: 328.5200°
revolutions per day: 14.28413784
mean anomaly at epoch: 99.3171°
orbit number at epoch: 70478

The dashed part of the orbit path shows where the satellite is in the earth's shadow,  

DLR